Time,TemperatureF,DewpointF,PressureIn,WindDirection,WindDirectionDegrees,WindSpeedMPH,WindSpeedGustMPH,Humidity,HourlyPrecipIn,Conditions,Clouds,dailyrainin,SoftwareType,DateUTC
2013-02-24 00:00:00,42.8,37.7,29.94,WNW,284,1.0,1.0,82,0.00,,SKC,0.00,VWS V14.01,2013-02-24 05:00:00,
2013-02-24 00:02:00,42.8,37.7,29.94,West,274,0.0,2.0,82,0.00,,SKC,0.00,VWS V14.01,2013-02-24 05:02:00,
2013-02-24 00:05:00,42.9,37.8,29.95,SE,125,0.0,2.0,82,0.00,,SKC,0.00,VWS V14.01,2013-02-24 05:05:00,
2013-02-24 00:09:00,42.9,37.8,29.95,West,271,0.0,2.0,82,0.00,,SKC,0.00,VWS V14.01,2013-02-24 05:09:00,
2013-02-24 00:14:00,42.9,37.8,29.94,WNW,288,0.0,2.0,82,0.00,,SKC,0.00,VWS V14.01,2013-02-24 05:14:00,
2013-02-24 00:19:00,42.9,37.8,29.94,WNW,284,0.0,2.0,82,0.00,,SKC,0.00,VWS V14.01,2013-02-24 05:19:00,
2013-02-24 00:25:00,42.9,37.8,29.93,West,277,0.0,2.0,82,0.00,,SKC,0.00,VWS V14.01,2013-02-24 05:25:00,
2013-02-24 00:30:00,42.9,37.8,29.93,WNW,293,0.0,0.0,82,0.00,,SKC,0.00,VWS V14.01,2013-02-24 05:30:00,
2013-02-24 00:36:00,43.0,37.9,29.93,WNW,302,2.0,2.0,82,0.00,,SKC,0.00,VWS V14.01,2013-02-24 05:36:00,
2013-02-24 00:41:00,42.9,37.8,29.93,WSW,255,1.0,2.0,82,0.00,,SKC,0.00,VWS V14.01,2013-02-24 05:41:00,
2013-02-24 00:47:00,43.0,37.9,29.94,WNW,300,1.0,3.0,82,0.00,,SKC,0.00,VWS V14.01,2013-02-24 05:47:00,
2013-02-24 00:52:00,43.0,37.9,29.93,WSW,249,0.0,3.0,82,0.00,,SKC,0.00,VWS V14.01,2013-02-24 05:52:00,
2013-02-24 00:57:00,43.0,37.9,29.93,NW,311,0.0,3.0,82,0.00,,SKC,0.00,VWS V14.01,2013-02-24 05:57:00,
2013-02-24 01:00:00,43.0,37.9,29.93,NW,310,0.0,3.0,82,0.00,,SKC,0.00,VWS V14.01,2013-02-24 06:00:00,
2013-02-24 01:03:00,43.0,37.9,29.93,West,263,0.0,2.0,82,0.00,,SKC,0.00,VWS V14.01,2013-02-24 06:03:00,
2013-02-24 01:08:00,43.0,37.9,29.93,ENE,77,0.0,2.0,82,0.00,,SKC,0.00,VWS V14.01,2013-02-24 06:08:00,
2013-02-24 01:14:00,43.1,38.0,29.93,WNW,298,1.0,3.0,82,0.00,,SKC,0.00,VWS V14.01,2013-02-24 06:14:00,
2013-02-24 01:19:00,43.1,38.0,29.93,WNW,294,0.0,3.0,82,0.00,,SKC,0.00,VWS V14.01,2013-02-24 06:19:00,
2013-02-24 01:24:00,43.2,38.1,29.93,WSW,255,0.0,3.0,82,0.00,,SKC,0.00,VWS V14.01,2013-02-24 06:24:00,
2013-02-24 01:30:00,43.1,38.0,29.93,WNW,300,3.0,3.0,82,0.00,,SKC,0.00,VWS V14.01,2013-02-24 06:30:00,
2013-02-24 01:35:00,43.1,38.0,29.93,WNW,284,0.0,3.0,82,0.00,,SKC,0.00,VWS V14.01,2013-02-24 06:35:00,
2013-02-24 01:41:00,43.2,38.1,29.93,WNW,283,0.0,3.0,82,0.00,,SKC,0.00,VWS V14.01,2013-02-24 06:41:00,
2013-02-24 01:46:00,43.1,38.0,29.93,NW,308,0.0,3.0,82,0.00,,SKC,0.00,VWS V14.01,2013-02-24 06:46:00,
2013-02-24 01:52:00,43.1,38.0,29.92,WSW,258,1.0,3.0,82,0.00,,SKC,0.00,VWS V14.01,2013-02-24 06:52:00,
2013-02-24 01:57:00,43.1,38.0,29.92,WNW,283,2.0,3.0,82,0.00,,SKC,0.00,VWS V14.01,2013-02-24 06:57:00,
2013-02-24 02:00:00,43.0,37.9,29.92,NW,304,0.0,3.0,82,0.00,,SKC,0.00,VWS V14.01,2013-02-24 07:00:00,
2013-02-24 02:02:00,43.0,37.9,29.92,NW,304,0.0,0.0,82,0.00,,SKC,0.00,VWS V14.01,2013-02-24 07:02:00,
2013-02-24 02:08:00,43.0,37.9,29.92,West,271,2.0,2.0,82,0.00,,SKC,0.00,VWS V14.01,2013-02-24 07:08:00,
2013-02-24 02:13:00,42.9,37.8,29.92,WNW,301,0.0,2.0,82,0.00,,SKC,0.00,VWS V14.01,2013-02-24 07:13:00,
2013-02-24 02:19:00,42.9,37.8,29.92,West,277,0.0,2.0,82,0.00,,SKC,0.00,VWS V14.01,2013-02-24 07:19:00,
2013-02-24 02:24:00,42.9,37.8,29.92,West,274,0.0,2.0,82,0.00,,SKC,0.00,VWS V14.01,2013-02-24 07:24:00,
2013-02-24 02:30:00,42.9,37.8,29.92,West,280,0.0,0.0,82,0.00,,SKC,0.00,VWS V14.01,2013-02-24 07:30:00,
2013-02-24 02:35:00,42.8,37.7,29.92,West,277,0.0,1.0,82,0.00,,SKC,0.00,VWS V14.01,2013-02-24 07:35:00,
2013-02-24 02:40:00,42.8,37.7,29.93,West,281,1.0,3.0,82,0.00,,SKC,0.00,VWS V14.01,2013-02-24 07:40:00,
2013-02-24 02:46:00,42.8,37.7,29.93,West,267,0.0,3.0,82,0.00,,SKC,0.00,VWS V14.01,2013-02-24 07:46:00,
2013-02-24 02:51:00,42.8,37.7,29.93,West,267,0.0,3.0,82,0.00,,SKC,0.00,VWS V14.01,2013-02-24 07:51:00,
2013-02-24 02:57:00,42.7,37.6,29.93,West,277,0.0,3.0,82,0.00,,SKC,0.00,VWS V14.01,2013-02-24 07:57:00,
2013-02-24 03:00:00,42.7,37.6,29.93,WNW,287,0.0,3.0,82,0.00,,SKC,0.00,VWS V14.01,2013-02-24 08:00:00,
2013-02-24 03:02:00,42.7,37.6,29.93,NW,308,2.0,2.0,82,0.00,,SKC,0.00,VWS V14.01,2013-02-24 08:02:00,
2013-02-24 03:08:00,42.6,37.5,29.93,West,270,1.0,3.0,82,0.00,,SKC,0.00,VWS V14.01,2013-02-24 08:08:00,
2013-02-24 03:13:00,42.5,37.4,29.93,West,274,0.0,3.0,82,0.00,,SKC,0.00,VWS V14.01,2013-02-24 08:13:00,
2013-02-24 03:19:00,42.5,37.4,29.93,NW,308,2.0,3.0,82,0.00,,SKC,0.00,VWS V14.01,2013-02-24 08:19:00,
2013-02-24 03:24:00,42.4,37.3,29.92,WNW,293,0.0,3.0,82,0.00,,SKC,0.00,VWS V14.01,2013-02-24 08:24:00,
2013-02-24 03:29:00,42.3,37.2,29.92,West,264,0.0,0.0,82,0.00,,SKC,0.00,VWS V14.01,2013-02-24 08:29:00,
2013-02-24 03:30:00,42.3,37.2,29.92,NW,321,0.0,3.0,82,0.00,,SKC,0.00,VWS V14.01,2013-02-24 08:30:00,
2013-02-24 03:35:00,42.3,37.2,29.92,NNW,332,1.0,3.0,82,0.00,,SKC,0.00,VWS V14.01,2013-02-24 08:35:00,
2013-02-24 03:40:00,42.2,37.1,29.92,West,270,0.0,3.0,82,0.00,,SKC,0.00,VWS V14.01,2013-02-24 08:40:00,
2013-02-24 03:46:00,42.1,37.0,29.92,WNW,290,3.0,3.0,82,0.00,,SKC,0.00,VWS V14.01,2013-02-24 08:46:00,
2013-02-24 03:51:00,42.0,36.9,29.92,ESE,122,1.0,3.0,82,0.00,,SKC,0.00,VWS V14.01,2013-02-24 08:51:00,
2013-02-24 03:57:00,42.0,36.9,29.92,West,263,0.0,3.0,82,0.00,,SKC,0.00,VWS V14.01,2013-02-24 08:57:00,
2013-02-24 04:00:00,41.9,36.8,29.92,West,279,0.0,3.0,82,0.00,,SKC,0.00,VWS V14.01,2013-02-24 09:00:00,
2013-02-24 04:02:00,41.9,36.8,29.92,West,280,0.0,0.0,82,0.00,,SKC,0.00,VWS V14.01,2013-02-24 09:02:00,
2013-02-24 04:07:00,41.9,36.8,29.92,WSW,248,0.0,0.0,82,0.00,,SKC,0.00,VWS V14.01,2013-02-24 09:07:00,
2013-02-24 04:13:00,41.9,36.8,29.93,West,274,0.0,0.0,82,0.00,,SKC,0.00,VWS V14.01,2013-02-24 09:13:00,
2013-02-24 04:18:00,41.8,36.7,29.93,WNW,291,0.0,3.0,82,0.00,,SKC,0.00,VWS V14.01,2013-02-24 09:18:00,
2013-02-24 04:24:00,41.7,36.6,29.93,WNW,298,0.0,3.0,82,0.00,,SKC,0.00,VWS V14.01,2013-02-24 09:24:00,
2013-02-24 04:29:00,41.7,36.6,29.93,WNW,295,0.0,3.0,82,0.00,,SKC,0.00,VWS V14.01,2013-02-24 09:29:00,
2013-02-24 04:30:00,41.7,36.6,29.93,WNW,295,0.0,3.0,82,0.00,,SKC,0.00,VWS V14.01,2013-02-24 09:30:00,
2013-02-24 04:35:00,41.7,36.6,29.93,WSW,256,0.0,0.0,82,0.00,,SKC,0.00,VWS V14.01,2013-02-24 09:35:00,
2013-02-24 04:40:00,41.6,36.5,29.93,SW,224,0.0,0.0,82,0.00,,SKC,0.00,VWS V14.01,2013-02-24 09:40:00,
2013-02-24 04:46:00,41.5,36.4,29.93,SE,146,0.0,1.0,82,0.00,,SKC,0.00,VWS V14.01,2013-02-24 09:46:00,
2013-02-24 04:51:00,41.5,36.4,29.94,West,269,0.0,1.0,82,0.00,,SKC,0.00,VWS V14.01,2013-02-24 09:51:00,
2013-02-24 04:57:00,41.4,36.6,29.94,WNW,283,0.0,1.0,83,0.00,,SKC,0.00,VWS V14.01,2013-02-24 09:57:00,
2013-02-24 05:00:00,41.3,36.5,29.94,WNW,288,0.0,1.0,83,0.00,,SKC,0.00,VWS V14.01,2013-02-24 10:00:00,
2013-02-24 05:02:00,41.2,36.4,29.94,WNW,287,0.0,1.0,83,0.00,,SKC,0.00,VWS V14.01,2013-02-24 10:02:00,
2013-02-24 05:07:00,41.1,36.3,29.95,WNW,302,0.0,1.0,83,0.00,,SKC,0.00,VWS V14.01,2013-02-24 10:07:00,
2013-02-24 05:13:00,41.1,36.3,29.95,WNW,294,0.0,1.0,83,0.00,,SKC,0.00,VWS V14.01,2013-02-24 10:13:00,
2013-02-24 05:18:00,41.0,36.2,29.95,NW,310,2.0,2.0,83,0.00,,SKC,0.00,VWS V14.01,2013-02-24 10:18:00,
2013-02-24 05:24:00,41.0,35.9,29.95,WNW,286,0.0,2.0,82,0.00,,SKC,0.00,VWS V14.01,2013-02-24 10:24:00,
2013-02-24 05:29:00,40.9,36.1,29.95,NW,315,0.0,2.0,83,0.00,,SKC,0.00,VWS V14.01,2013-02-24 10:29:00,
2013-02-24 05:30:00,40.9,36.1,29.95,NW,315,0.0,2.0,83,0.00,,SKC,0.00,VWS V14.01,2013-02-24 10:30:00,
2013-02-24 05:34:00,40.9,36.1,29.96,WNW,290,0.0,1.0,83,0.00,,SKC,0.00,VWS V14.01,2013-02-24 10:34:00,
2013-02-24 05:40:00,40.8,36.0,29.96,West,275,0.0,2.0,83,0.00,,SKC,0.00,VWS V14.01,2013-02-24 10:40:00,
2013-02-24 05:45:00,40.8,36.0,29.96,West,276,0.0,2.0,83,0.00,,SKC,0.00,VWS V14.01,2013-02-24 10:45:00,
2013-02-24 05:51:00,40.7,36.0,29.96,West,276,0.0,2.0,83,0.00,,SKC,0.00,VWS V14.01,2013-02-24 10:51:00,
2013-02-24 05:56:00,40.8,36.0,29.96,NW,311,0.0,2.0,83,0.00,,SKC,0.00,VWS V14.01,2013-02-24 10:56:00,
2013-02-24 06:00:00,40.7,36.0,29.97,NW,310,0.0,2.0,83,0.00,,SKC,0.00,VWS V14.01,2013-02-24 11:00:00,
2013-02-24 06:02:00,40.8,36.0,29.97,NW,310,0.0,0.0,83,0.00,,SKC,0.00,VWS V14.01,2013-02-24 11:02:00,
2013-02-24 06:07:00,40.8,36.0,29.97,NW,310,0.0,0.0,83,0.00,,SKC,0.00,VWS V14.01,2013-02-24 11:07:00,
2013-02-24 06:12:00,40.7,36.0,29.97,NW,311,0.0,0.0,83,0.00,,SKC,0.00,VWS V14.01,2013-02-24 11:12:00,
2013-02-24 06:18:00,40.7,36.0,29.97,NW,308,0.0,0.0,83,0.00,,SKC,0.00,VWS V14.01,2013-02-24 11:18:00,
2013-02-24 06:23:00,40.6,35.8,29.97,NW,308,0.0,0.0,83,0.00,,SKC,0.00,VWS V14.01,2013-02-24 11:23:00,
2013-02-24 06:29:00,40.6,35.8,29.97,NW,308,0.0,0.0,83,0.00,,SKC,0.00,VWS V14.01,2013-02-24 11:29:00,
2013-02-24 06:30:00,40.6,35.8,29.97,NW,307,0.0,0.0,83,0.00,,SKC,0.00,VWS V14.01,2013-02-24 11:30:00,
2013-02-24 06:34:00,40.5,35.8,29.97,WSW,257,0.0,1.0,83,0.00,,SKC,0.00,VWS V14.01,2013-02-24 11:34:00,
2013-02-24 06:39:00,40.4,35.7,29.97,WNW,290,1.0,1.0,83,0.00,,SKC,0.00,VWS V14.01,2013-02-24 11:39:00,
2013-02-24 06:45:00,40.2,35.5,29.98,West,277,0.0,1.0,83,0.00,,SKC,0.00,VWS V14.01,2013-02-24 11:45:00,
2013-02-24 06:50:00,40.1,35.4,29.98,West,281,0.0,1.0,83,0.00,,SKC,0.00,VWS V14.01,2013-02-24 11:50:00,
2013-02-24 06:56:00,40.0,35.3,29.98,WNW,293,0.0,1.0,83,0.00,,SKC,0.00,VWS V14.01,2013-02-24 11:56:00,
2013-02-24 07:00:00,40.0,35.3,29.98,WNW,293,0.0,1.0,83,0.00,,SKC,0.00,VWS V14.01,2013-02-24 12:00:00,
2013-02-24 07:01:00,40.0,35.3,29.98,WNW,293,0.0,0.0,83,0.00,,SKC,0.00,VWS V14.01,2013-02-24 12:01:00,
2013-02-24 07:07:00,39.9,35.2,29.99,WNW,291,0.0,0.0,83,0.00,,SKC,0.00,VWS V14.01,2013-02-24 12:07:00,
2013-02-24 07:12:00,39.7,35.0,29.99,WNW,288,0.0,1.0,83,0.00,,SKC,0.00,VWS V14.01,2013-02-24 12:12:00,
2013-02-24 07:17:00,39.8,35.1,29.99,West,279,0.0,1.0,83,0.00,,SKC,0.00,VWS V14.01,2013-02-24 12:17:00,
2013-02-24 07:23:00,39.7,35.0,30.00,West,269,0.0,1.0,83,0.00,,SKC,0.00,VWS V14.01,2013-02-24 12:23:00,
2013-02-24 07:28:00,39.6,34.9,30.00,West,269,0.0,1.0,83,0.00,,SKC,0.00,VWS V14.01,2013-02-24 12:28:00,
2013-02-24 07:30:00,39.5,34.8,30.00,West,269,0.0,1.0,83,0.00,,SKC,0.00,VWS V14.01,2013-02-24 12:30:00,
2013-02-24 07:34:00,39.5,34.8,30.00,West,269,0.0,1.0,83,0.00,,SKC,0.00,VWS V14.01,2013-02-24 12:34:00,
2013-02-24 07:39:00,39.5,34.8,30.00,West,269,0.0,1.0,83,0.00,,SKC,0.00,VWS V14.01,2013-02-24 12:39:00,
2013-02-24 07:45:00,39.6,34.9,30.00,West,269,0.0,1.0,83,0.00,,SKC,0.00,VWS V14.01,2013-02-24 12:45:00,
2013-02-24 07:50:00,39.7,35.0,30.00,SSW,193,0.0,1.0,83,0.00,,SKC,0.00,VWS V14.01,2013-02-24 12:50:00,
2013-02-24 07:55:00,39.7,35.0,30.01,SSW,195,0.0,1.0,83,0.00,,SKC,0.00,VWS V14.01,2013-02-24 12:55:00,
2013-02-24 08:00:00,39.7,35.0,30.01,West,261,1.0,1.0,83,0.00,,SKC,0.00,VWS V14.01,2013-02-24 13:00:00,
2013-02-24 08:01:00,39.6,34.9,30.01,West,261,0.0,1.0,83,0.00,,SKC,0.00,VWS V14.01,2013-02-24 13:01:00,
2013-02-24 08:06:00,39.6,34.9,30.01,West,274,0.0,1.0,83,0.00,,SKC,0.00,VWS V14.01,2013-02-24 13:06:00,
2013-02-24 08:12:00,39.6,34.9,30.01,West,277,0.0,1.0,83,0.00,,SKC,0.00,VWS V14.01,2013-02-24 13:12:00,
2013-02-24 08:17:00,39.7,35.0,30.01,West,263,0.0,1.0,83,0.00,,SKC,0.00,VWS V14.01,2013-02-24 13:17:00,
2013-02-24 08:22:00,39.9,35.2,30.01,ESE,104,0.0,1.0,83,0.00,,SKC,0.00,VWS V14.01,2013-02-24 13:22:00,
2013-02-24 08:28:00,40.3,35.6,30.01,ESE,104,0.0,1.0,83,0.00,,SKC,0.00,VWS V14.01,2013-02-24 13:28:00,
2013-02-24 08:30:00,40.4,35.7,30.02,ESE,105,0.0,1.0,83,0.00,,SKC,0.00,VWS V14.01,2013-02-24 13:30:00,
2013-02-24 08:33:00,40.6,35.8,30.01,ESE,105,0.0,0.0,83,0.00,,SKC,0.00,VWS V14.01,2013-02-24 13:33:00,
2013-02-24 08:39:00,40.5,35.8,30.02,ESE,106,0.0,0.0,83,0.00,,SKC,0.00,VWS V14.01,2013-02-24 13:39:00,
2013-02-24 08:44:00,40.8,36.0,30.02,ESE,106,0.0,0.0,83,0.00,,SKC,0.00,VWS V14.01,2013-02-24 13:44:00,
2013-02-24 08:50:00,41.1,36.3,30.02,ESE,105,0.0,0.0,83,0.00,,SKC,0.00,VWS V14.01,2013-02-24 13:50:00,
2013-02-24 08:55:00,41.2,36.4,30.03,ESE,106,0.0,0.0,83,0.00,,SKC,0.00,VWS V14.01,2013-02-24 13:55:00,
2013-02-24 09:00:00,41.4,36.6,30.03,WSW,246,0.0,0.0,83,0.00,,SKC,0.00,VWS V14.01,2013-02-24 14:00:00,
2013-02-24 09:01:00,41.5,36.7,30.03,WSW,246,0.0,0.0,83,0.00,,SKC,0.00,VWS V14.01,2013-02-24 14:01:00,
2013-02-24 09:08:00,41.7,37.2,30.03,WSW,246,0.0,0.0,84,0.00,,SKC,0.00,VWS V14.01,2013-02-24 14:08:00,
2013-02-24 09:13:00,41.7,37.2,30.03,East,94,0.0,0.0,84,0.00,,SKC,0.00,VWS V14.01,2013-02-24 14:13:00,
2013-02-24 09:18:00,42.0,37.5,30.03,East,94,0.0,0.0,84,0.00,,SKC,0.00,VWS V14.01,2013-02-24 14:18:00,
2013-02-24 09:24:00,41.9,37.7,30.04,South,186,0.0,1.0,85,0.00,,SKC,0.00,VWS V14.01,2013-02-24 14:24:00,
2013-02-24 09:29:00,42.9,38.1,30.04,West,262,0.0,1.0,83,0.00,,SKC,0.00,VWS V14.01,2013-02-24 14:29:00,
2013-02-24 09:30:00,42.9,38.1,30.04,West,262,0.0,1.0,83,0.00,,SKC,0.00,VWS V14.01,2013-02-24 14:30:00,
2013-02-24 09:35:00,43.7,38.9,30.04,SSE,147,0.0,1.0,83,0.00,,SKC,0.00,VWS V14.01,2013-02-24 14:35:00,
2013-02-24 09:40:00,44.2,40.6,30.04,WSW,253,0.0,2.0,87,0.00,,SKC,0.00,VWS V14.01,2013-02-24 14:40:00,
2013-02-24 09:46:00,44.4,41.1,30.04,SSW,205,1.0,2.0,88,0.00,,SKC,0.00,VWS V14.01,2013-02-24 14:46:00,
2013-02-24 09:51:00,45.1,41.8,30.04,SW,225,0.0,2.0,88,0.00,,SKC,0.00,VWS V14.01,2013-02-24 14:51:00,
2013-02-24 09:56:00,45.7,42.7,30.04,SE,136,0.0,2.0,89,0.00,,SKC,0.00,VWS V14.01,2013-02-24 14:56:00,
2013-02-24 10:00:00,46.4,43.3,30.04,SE,136,1.0,2.0,89,0.00,,SKC,0.00,VWS V14.01,2013-02-24 15:00:00,
2013-02-24 10:02:00,46.6,43.8,30.04,East,84,0.0,1.0,90,0.00,,SKC,0.00,VWS V14.01,2013-02-24 15:02:00,
2013-02-24 10:07:00,47.2,43.8,30.04,East,83,0.0,1.0,88,0.00,,SKC,0.00,VWS V14.01,2013-02-24 15:07:00,
2013-02-24 10:12:00,47.7,44.0,30.04,East,92,1.0,1.0,87,0.00,,SKC,0.00,VWS V14.01,2013-02-24 15:12:00,
2013-02-24 10:18:00,48.1,43.8,30.04,East,91,0.0,1.0,85,0.00,,SKC,0.00,VWS V14.01,2013-02-24 15:18:00,
2013-02-24 10:23:00,48.5,43.6,30.04,East,94,0.0,1.0,83,0.00,,SKC,0.00,VWS V14.01,2013-02-24 15:23:00,
2013-02-24 10:29:00,48.6,42.4,30.04,East,84,2.0,2.0,79,0.00,,SKC,0.00,VWS V14.01,2013-02-24 15:29:00,
2013-02-24 10:30:00,48.6,42.4,30.04,East,86,2.0,2.0,79,0.00,,SKC,0.00,VWS V14.01,2013-02-24 15:30:00,
2013-02-24 10:34:00,48.4,42.5,30.03,ESE,113,0.0,2.0,80,0.00,,SKC,0.00,VWS V14.01,2013-02-24 15:34:00,
2013-02-24 10:40:00,49.1,43.5,30.03,East,98,0.0,2.0,81,0.00,,SKC,0.00,VWS V14.01,2013-02-24 15:40:00,
2013-02-24 10:45:00,50.1,44.2,30.03,ESE,105,0.0,2.0,80,0.00,,SKC,0.00,VWS V14.01,2013-02-24 15:45:00,
2013-02-24 10:51:00,50.8,43.2,30.04,East,79,0.0,2.0,75,0.00,,SKC,0.00,VWS V14.01,2013-02-24 15:51:00,
2013-02-24 10:56:00,51.1,42.4,30.04,East,97,0.0,3.0,72,0.00,,SKC,0.00,VWS V14.01,2013-02-24 15:56:00,
2013-02-24 11:00:00,51.3,43.0,30.04,ESE,117,1.0,3.0,73,0.00,,SKC,0.00,VWS V14.01,2013-02-24 16:00:00,
2013-02-24 11:01:00,51.4,43.4,30.04,ENE,75,0.0,1.0,74,0.00,,SKC,0.00,VWS V14.01,2013-02-24 16:01:00,
2013-02-24 11:07:00,52.0,43.6,30.04,West,269,0.0,1.0,73,0.00,,SKC,0.00,VWS V14.01,2013-02-24 16:07:00,
2013-02-24 11:12:00,52.8,43.3,30.04,East,86,1.0,3.0,70,0.00,,SKC,0.00,VWS V14.01,2013-02-24 16:12:00,
2013-02-24 11:18:00,52.9,43.8,30.04,East,90,0.0,3.0,71,0.00,,SKC,0.00,VWS V14.01,2013-02-24 16:18:00,
2013-02-24 11:23:00,53.6,43.7,30.04,WNW,293,1.0,3.0,69,0.00,,SKC,0.00,VWS V14.01,2013-02-24 16:23:00,
2013-02-24 11:29:00,54.7,44.4,30.04,North,360,0.0,3.0,68,0.00,,SKC,0.00,VWS V14.01,2013-02-24 16:29:00,
2013-02-24 11:30:00,54.8,44.5,30.04,North,4,1.0,3.0,68,0.00,,SKC,0.00,VWS V14.01,2013-02-24 16:30:00,
2013-02-24 11:34:00,55.2,42.4,30.04,SE,141,0.0,3.0,62,0.00,,SKC,0.00,VWS V14.01,2013-02-24 16:34:00,
2013-02-24 11:41:00,56.1,45.3,30.04,ESE,117,0.0,3.0,67,0.00,,SKC,0.00,VWS V14.01,2013-02-24 16:41:00,
2013-02-24 11:47:00,56.5,41.5,30.04,West,273,2.0,3.0,57,0.00,,SKC,0.00,VWS V14.01,2013-02-24 16:47:00,
2013-02-24 11:52:00,55.9,41.3,30.04,WNW,290,2.0,3.0,58,0.00,,SKC,0.00,VWS V14.01,2013-02-24 16:52:00,
2013-02-24 11:57:00,56.8,43.1,30.03,ESE,115,1.0,3.0,60,0.00,,SKC,0.00,VWS V14.01,2013-02-24 16:57:00,
2013-02-24 12:00:00,57.2,43.0,30.03,ESE,113,0.0,3.0,59,0.00,,SKC,0.00,VWS V14.01,2013-02-24 17:00:00,
2013-02-24 12:03:00,57.9,43.2,30.03,West,266,1.0,2.0,58,0.00,,SKC,0.00,VWS V14.01,2013-02-24 17:03:00,
2013-02-24 12:08:00,58.1,42.5,30.03,ESE,105,1.0,2.0,56,0.00,,SKC,0.00,VWS V14.01,2013-02-24 17:08:00,
2013-02-24 12:14:00,58.7,42.1,30.03,West,277,0.0,2.0,54,0.00,,SKC,0.00,VWS V14.01,2013-02-24 17:14:00,
2013-02-24 12:19:00,59.3,42.7,30.03,West,274,0.0,3.0,54,0.00,,SKC,0.00,VWS V14.01,2013-02-24 17:19:00,
2013-02-24 12:25:00,59.8,41.1,30.03,West,281,1.0,3.0,50,0.00,,SKC,0.00,VWS V14.01,2013-02-24 17:25:00,
2013-02-24 12:30:00,60.2,41.5,30.02,ESE,112,1.0,1.0,50,0.00,,SKC,0.00,VWS V14.01,2013-02-24 17:30:00,
2013-02-24 12:35:00,60.3,41.6,30.02,SSE,156,1.0,3.0,50,0.00,,SKC,0.00,VWS V14.01,2013-02-24 17:35:00,
2013-02-24 12:41:00,60.6,41.9,30.02,WSW,243,0.0,3.0,50,0.00,,SKC,0.00,VWS V14.01,2013-02-24 17:41:00,
2013-02-24 12:46:00,60.7,39.3,30.02,East,97,0.0,4.0,45,0.00,,SKC,0.00,VWS V14.01,2013-02-24 17:46:00,
2013-02-24 12:52:00,60.7,39.3,30.01,WNW,288,2.0,6.0,45,0.00,,SKC,0.00,VWS V14.01,2013-02-24 17:52:00,
2013-02-24 12:57:00,61.4,39.3,30.01,SE,146,0.0,6.0,44,0.00,,SKC,0.00,VWS V14.01,2013-02-24 17:57:00,
2013-02-24 13:00:00,68.7,38.5,29.98,East,100,0.0,2.0,33,0.00,,SKC,0.00,VWS V14.01,2013-02-24 18:00:00,
2013-02-24 13:02:00,61.8,39.7,30.01,WSW,252,3.0,4.0,44,0.00,,SKC,0.00,VWS V14.01,2013-02-24 18:02:00,
2013-02-24 13:08:00,61.2,39.7,30.01,North,360,0.0,4.0,45,0.00,,SKC,0.00,VWS V14.01,2013-02-24 18:08:00,
2013-02-24 13:13:00,62.2,40.6,30.00,SSW,211,0.0,4.0,45,0.00,,SKC,0.00,VWS V14.01,2013-02-24 18:13:00,
2013-02-24 13:19:00,63.6,41.9,30.00,West,278,1.0,4.0,45,0.00,,SKC,0.00,VWS V14.01,2013-02-24 18:19:00,
2013-02-24 13:24:00,63.1,39.0,30.00,ESE,122,1.0,4.0,41,0.00,,SKC,0.00,VWS V14.01,2013-02-24 18:24:00,
2013-02-24 13:30:00,63.8,40.9,30.00,East,93,0.0,2.0,43,0.00,,SKC,0.00,VWS V14.01,2013-02-24 18:30:00,
2013-02-24 13:35:00,64.2,40.0,29.99,East,86,1.0,2.0,41,0.00,,SKC,0.00,VWS V14.01,2013-02-24 18:35:00,
2013-02-24 13:40:00,64.7,41.7,29.99,East,80,0.0,2.0,43,0.00,,SKC,0.00,VWS V14.01,2013-02-24 18:40:00,
2013-02-24 13:46:00,66.6,40.2,29.99,ESE,115,1.0,2.0,38,0.00,,SKC,0.00,VWS V14.01,2013-02-24 18:46:00,
2013-02-24 13:51:00,67.7,39.8,29.99,SW,232,0.0,2.0,36,0.00,,SKC,0.00,VWS V14.01,2013-02-24 18:51:00,
2013-02-24 13:57:00,68.3,38.9,29.99,East,90,0.0,2.0,34,0.00,,SKC,0.00,VWS V14.01,2013-02-24 18:57:00,
2013-02-24 14:00:00,68.7,38.5,29.98,East,100,0.0,2.0,33,0.00,,SKC,0.00,VWS V14.01,2013-02-24 19:00:00,
2013-02-24 14:02:00,68.8,40.1,29.98,ESE,112,0.0,1.0,35,0.00,,SKC,0.00,VWS V14.01,2013-02-24 19:02:00,
2013-02-24 14:08:00,69.3,39.0,29.98,North,356,1.0,2.0,33,0.00,,SKC,0.00,VWS V14.01,2013-02-24 19:08:00,
2013-02-24 14:13:00,68.4,35.8,29.98,East,82,0.0,2.0,30,0.00,,SKC,0.00,VWS V14.01,2013-02-24 19:13:00,
2013-02-24 14:18:00,67.0,37.0,29.98,SSE,162,0.0,2.0,33,0.00,,SKC,0.00,VWS V14.01,2013-02-24 19:18:00,
2013-02-24 14:24:00,67.5,39.6,29.97,East,82,0.0,2.0,36,0.00,,SKC,0.00,VWS V14.01,2013-02-24 19:24:00,
2013-02-24 14:29:00,69.2,36.5,29.98,East,94,1.0,2.0,30,0.00,,SKC,0.00,VWS V14.01,2013-02-24 19:29:00,
2013-02-24 14:30:00,69.2,36.5,29.98,East,94,1.0,2.0,30,0.00,,SKC,0.00,VWS V14.01,2013-02-24 19:30:00,
2013-02-24 14:35:00,68.8,37.0,29.98,WNW,288,2.0,3.0,31,0.00,,SKC,0.00,VWS V14.01,2013-02-24 19:35:00,
2013-02-24 14:40:00,66.6,35.0,29.98,NW,307,0.0,5.0,31,0.00,,SKC,0.00,VWS V14.01,2013-02-24 19:40:00,
2013-02-24 14:46:00,66.7,35.9,29.98,SW,221,1.0,5.0,32,0.00,,SKC,0.00,VWS V14.01,2013-02-24 19:46:00,
2013-02-24 14:51:00,66.6,35.8,29.98,South,173,1.0,5.0,32,0.00,,SKC,0.00,VWS V14.01,2013-02-24 19:51:00,
2013-02-24 14:56:00,66.7,34.3,29.98,WNW,293,2.0,5.0,30,0.00,,SKC,0.00,VWS V14.01,2013-02-24 19:56:00,
2013-02-24 15:00:00,66.5,37.3,29.98,WSW,248,0.0,5.0,34,0.00,,SKC,0.00,VWS V14.01,2013-02-24 20:00:00,
2013-02-24 15:02:00,66.7,36.7,29.98,West,273,1.0,1.0,33,0.00,,SKC,0.00,VWS V14.01,2013-02-24 20:02:00,
2013-02-24 15:07:00,66.7,35.9,29.98,West,264,2.0,5.0,32,0.00,,SKC,0.00,VWS V14.01,2013-02-24 20:07:00,
2013-02-24 15:13:00,66.4,35.7,29.98,West,261,0.0,5.0,32,0.00,,SKC,0.00,VWS V14.01,2013-02-24 20:13:00,
2013-02-24 15:18:00,67.1,36.3,29.98,ESE,122,0.0,5.0,32,0.00,,SKC,0.00,VWS V14.01,2013-02-24 20:18:00,
2013-02-24 15:24:00,66.4,34.0,29.98,NW,308,0.0,5.0,30,0.00,,SKC,0.00,VWS V14.01,2013-02-24 20:24:00,
2013-02-24 15:29:00,66.4,35.7,29.98,SSE,154,2.0,5.0,32,0.00,,SKC,0.00,VWS V14.01,2013-02-24 20:29:00,
2013-02-24 15:30:00,66.4,35.7,29.97,SSW,193,2.0,5.0,32,0.00,,SKC,0.00,VWS V14.01,2013-02-24 20:30:00,
2013-02-24 15:34:00,66.1,34.6,29.97,NE,55,0.0,2.0,31,0.00,,SKC,0.00,VWS V14.01,2013-02-24 20:34:00,
2013-02-24 15:40:00,66.0,33.7,29.97,WNW,290,0.0,4.0,30,0.00,,SKC,0.00,VWS V14.01,2013-02-24 20:40:00,
2013-02-24 15:45:00,65.6,34.2,29.97,North,359,1.0,4.0,31,0.00,,SKC,0.00,VWS V14.01,2013-02-24 20:45:00,
2013-02-24 15:51:00,64.9,35.1,29.97,WSW,243,1.0,4.0,33,0.00,,SKC,0.00,VWS V14.01,2013-02-24 20:51:00,
2013-02-24 15:56:00,64.7,35.0,29.97,West,270,0.0,4.0,33,0.00,,SKC,0.00,VWS V14.01,2013-02-24 20:56:00,
2013-02-24 16:00:00,64.6,33.3,29.96,WSW,246,2.0,4.0,31,0.00,,SKC,0.00,VWS V14.01,2013-02-24 21:00:00,
2013-02-24 16:02:00,64.3,33.0,29.96,WNW,287,1.0,3.0,31,0.00,,SKC,0.00,VWS V14.01,2013-02-24 21:02:00,
2013-02-24 16:07:00,63.7,34.1,29.96,West,270,1.0,3.0,33,0.00,,SKC,0.00,VWS V14.01,2013-02-24 21:07:00,
2013-02-24 16:12:00,63.5,33.9,29.96,SSW,212,0.0,3.0,33,0.00,,SKC,0.00,VWS V14.01,2013-02-24 21:12:00,
2013-02-24 16:18:00,63.6,34.7,29.96,NW,308,0.0,3.0,34,0.00,,SKC,0.00,VWS V14.01,2013-02-24 21:18:00,
2013-02-24 16:23:00,63.6,34.0,29.96,SE,135,0.0,3.0,33,0.00,,SKC,0.00,VWS V14.01,2013-02-24 21:23:00,
2013-02-24 16:29:00,64.1,35.2,29.96,West,260,0.0,3.0,34,0.00,,SKC,0.00,VWS V14.01,2013-02-24 21:29:00,
2013-02-24 16:30:00,64.1,35.2,29.96,SW,225,0.0,3.0,34,0.00,,SKC,0.00,VWS V14.01,2013-02-24 21:30:00,
2013-02-24 16:34:00,64.2,36.7,29.96,ESE,116,0.0,2.0,36,0.00,,SKC,0.00,VWS V14.01,2013-02-24 21:34:00,
2013-02-24 16:39:00,64.3,33.8,29.96,WNW,298,0.0,2.0,32,0.00,,SKC,0.00,VWS V14.01,2013-02-24 21:39:00,
2013-02-24 16:45:00,64.1,33.7,29.97,SE,129,1.0,2.0,32,0.00,,SKC,0.00,VWS V14.01,2013-02-24 21:45:00,
2013-02-24 16:50:00,64.2,33.8,29.97,WSW,243,0.0,2.0,32,0.00,,SKC,0.00,VWS V14.01,2013-02-24 21:50:00,
2013-02-24 16:56:00,64.2,33.8,29.97,SW,222,0.0,2.0,32,0.00,,SKC,0.00,VWS V14.01,2013-02-24 21:56:00,
2013-02-24 17:00:00,64.2,34.5,29.97,SW,218,2.0,2.0,33,0.00,,SKC,0.00,VWS V14.01,2013-02-24 22:00:00,
2013-02-24 17:01:00,64.2,33.8,29.97,SW,214,2.0,2.0,32,0.00,,SKC,0.00,VWS V14.01,2013-02-24 22:01:00,
2013-02-24 17:07:00,63.8,34.9,29.97,West,264,1.0,2.0,34,0.00,,SKC,0.00,VWS V14.01,2013-02-24 22:07:00,
2013-02-24 17:12:00,63.7,33.3,29.97,SSW,197,0.0,2.0,32,0.00,,SKC,0.00,VWS V14.01,2013-02-24 22:12:00,
2013-02-24 17:17:00,63.8,34.2,29.97,SSW,197,0.0,2.0,33,0.00,,SKC,0.00,VWS V14.01,2013-02-24 22:17:00,
2013-02-24 17:23:00,63.7,34.8,29.97,SW,228,0.0,2.0,34,0.00,,SKC,0.00,VWS V14.01,2013-02-24 22:23:00,
2013-02-24 17:28:00,63.6,35.5,29.97,SSW,212,0.0,2.0,35,0.00,,SKC,0.00,VWS V14.01,2013-02-24 22:28:00,
2013-02-24 17:30:00,63.6,34.7,29.97,SW,219,0.0,2.0,34,0.00,,SKC,0.00,VWS V14.01,2013-02-24 22:30:00,
2013-02-24 17:34:00,63.4,33.8,29.97,WSW,246,0.0,1.0,33,0.00,,SKC,0.00,VWS V14.01,2013-02-24 22:34:00,
2013-02-24 17:39:00,62.7,34.7,29.97,SW,226,0.0,1.0,35,0.00,,SKC,0.00,VWS V14.01,2013-02-24 22:39:00,
2013-02-24 17:44:00,62.1,34.8,29.97,SSE,153,0.0,1.0,36,0.00,,SKC,0.00,VWS V14.01,2013-02-24 22:44:00,
2013-02-24 17:50:00,61.3,34.8,29.97,SSE,153,0.0,1.0,37,0.00,,SKC,0.00,VWS V14.01,2013-02-24 22:50:00,
2013-02-24 17:55:00,60.6,34.2,29.98,WSW,246,0.0,2.0,37,0.00,,SKC,0.00,VWS V14.01,2013-02-24 22:55:00,
2013-02-24 18:00:00,60.3,34.6,29.98,WSW,249,0.0,2.0,38,0.00,,SKC,0.00,VWS V14.01,2013-02-24 23:00:00,
2013-02-24 18:01:00,60.1,34.4,29.98,WSW,249,0.0,0.0,38,0.00,,SKC,0.00,VWS V14.01,2013-02-24 23:01:00,
2013-02-24 18:06:00,59.5,34.5,29.98,WSW,248,0.0,0.0,39,0.00,,SKC,0.00,VWS V14.01,2013-02-24 23:06:00,
2013-02-24 18:12:00,58.9,34.6,29.98,WSW,248,0.0,0.0,40,0.00,,SKC,0.00,VWS V14.01,2013-02-24 23:12:00,
2013-02-24 18:17:00,58.1,34.5,29.98,WSW,249,0.0,0.0,41,0.00,,SKC,0.00,VWS V14.01,2013-02-24 23:17:00,
2013-02-24 18:22:00,57.4,34.5,29.98,WSW,249,0.0,0.0,42,0.00,,SKC,0.00,VWS V14.01,2013-02-24 23:22:00,
2013-02-24 18:28:00,56.7,34.5,29.98,WSW,249,0.0,0.0,43,0.00,,SKC,0.00,VWS V14.01,2013-02-24 23:28:00,
2013-02-24 18:30:00,56.4,34.2,29.98,WSW,249,0.0,0.0,43,0.00,,SKC,0.00,VWS V14.01,2013-02-24 23:30:00,
2013-02-24 18:33:00,55.8,34.2,29.98,WSW,249,0.0,0.0,44,0.00,,SKC,0.00,VWS V14.01,2013-02-24 23:33:00,
2013-02-24 18:39:00,55.1,34.7,29.99,WSW,248,0.0,0.0,46,0.00,,SKC,0.00,VWS V14.01,2013-02-24 23:39:00,
2013-02-24 18:44:00,54.4,34.1,29.99,WSW,249,0.0,0.0,46,0.00,,SKC,0.00,VWS V14.01,2013-02-24 23:44:00,
2013-02-24 18:50:00,53.8,34.6,29.99,WSW,248,0.0,0.0,48,0.00,,SKC,0.00,VWS V14.01,2013-02-24 23:50:00,
2013-02-24 18:55:00,53.3,34.1,29.99,WSW,249,0.0,0.0,48,0.00,,SKC,0.00,VWS V14.01,2013-02-24 23:55:00,
2013-02-24 19:00:00,52.7,34.1,30.00,WSW,249,0.0,0.0,49,0.00,,SKC,0.00,VWS V14.01,2013-02-25 00:00:00,
2013-02-24 19:06:00,52.4,34.3,30.00,WSW,249,0.0,0.0,50,0.00,,SKC,0.00,VWS V14.01,2013-02-25 00:06:00,
2013-02-24 19:11:00,52.1,35.0,30.00,WSW,248,0.0,0.0,52,0.00,,SKC,0.00,VWS V14.01,2013-02-25 00:11:00,
2013-02-24 19:17:00,51.9,34.8,30.00,WSW,249,0.0,0.0,52,0.00,,SKC,0.00,VWS V14.01,2013-02-25 00:17:00,
2013-02-24 19:22:00,51.5,35.4,30.00,WSW,249,0.0,0.0,54,0.00,,SKC,0.00,VWS V14.01,2013-02-25 00:22:00,
2013-02-24 19:27:00,51.0,35.0,30.00,WSW,248,0.0,0.0,54,0.00,,SKC,0.00,VWS V14.01,2013-02-25 00:27:00,
2013-02-24 19:30:00,50.8,35.2,30.00,WSW,249,0.0,0.0,55,0.00,,SKC,0.00,VWS V14.01,2013-02-25 00:30:00,
2013-02-24 19:33:00,50.6,35.5,30.00,WSW,248,0.0,0.0,56,0.00,,SKC,0.00,VWS V14.01,2013-02-25 00:33:00,
2013-02-24 19:38:00,50.3,35.7,30.00,WSW,249,0.0,0.0,57,0.00,,SKC,0.00,VWS V14.01,2013-02-25 00:38:00,
2013-02-24 19:44:00,50.2,36.0,30.01,WSW,248,0.0,0.0,58,0.00,,SKC,0.00,VWS V14.01,2013-02-25 00:44:00,
2013-02-24 19:49:00,50.0,35.8,30.01,WSW,248,0.0,0.0,58,0.00,,SKC,0.00,VWS V14.01,2013-02-25 00:49:00,
2013-02-24 19:55:00,49.8,33.4,30.01,WSW,249,0.0,0.0,53,0.00,,SKC,0.00,VWS V14.01,2013-02-25 00:55:00,
2013-02-24 20:00:00,50.3,32.4,30.01,WSW,249,0.0,0.0,50,0.00,,SKC,0.00,VWS V14.01,2013-02-25 01:00:00,
2013-02-24 20:06:00,50.5,33.1,30.01,WSW,248,0.0,0.0,51,0.00,,SKC,0.00,VWS V14.01,2013-02-25 01:06:00,
2013-02-24 20:11:00,50.5,32.6,30.01,WSW,248,0.0,0.0,50,0.00,,SKC,0.00,VWS V14.01,2013-02-25 01:11:00,
2013-02-24 20:16:00,50.2,32.8,30.01,WSW,249,0.0,0.0,51,0.00,,SKC,0.00,VWS V14.01,2013-02-25 01:16:00,
2013-02-24 20:22:00,50.0,31.6,30.02,WSW,249,0.0,0.0,49,0.00,,SKC,0.00,VWS V14.01,2013-02-25 01:22:00,
2013-02-24 20:27:00,50.0,31.6,30.01,WSW,248,0.0,0.0,49,0.00,,SKC,0.00,VWS V14.01,2013-02-25 01:27:00,
2013-02-24 20:30:00,50.0,31.6,30.02,WSW,249,0.0,0.0,49,0.00,,SKC,0.00,VWS V14.01,2013-02-25 01:30:00,
2013-02-24 20:33:00,50.0,31.1,30.02,WSW,249,0.0,0.0,48,0.00,,SKC,0.00,VWS V14.01,2013-02-25 01:33:00,
2013-02-24 20:38:00,49.8,31.4,30.02,WSW,249,0.0,0.0,49,0.00,,SKC,0.00,VWS V14.01,2013-02-25 01:38:00,
2013-02-24 20:43:00,49.5,33.1,30.02,WSW,249,0.0,0.0,53,0.00,,SKC,0.00,VWS V14.01,2013-02-25 01:43:00,
2013-02-24 20:49:00,48.9,32.1,30.02,WSW,249,0.0,0.0,52,0.00,,SKC,0.00,VWS V14.01,2013-02-25 01:49:00,
2013-02-24 20:54:00,48.5,31.2,30.02,WSW,249,0.0,0.0,51,0.00,,SKC,0.00,VWS V14.01,2013-02-25 01:54:00,
2013-02-24 21:00:00,48.2,31.4,30.02,WSW,249,0.0,0.0,52,0.00,,SKC,0.00,VWS V14.01,2013-02-25 02:00:00,
2013-02-24 21:05:00,47.8,33.3,30.02,WSW,248,0.0,0.0,57,0.00,,SKC,0.00,VWS V14.01,2013-02-25 02:05:00,
2013-02-24 21:11:00,47.3,32.0,30.02,WSW,248,0.0,0.0,55,0.00,,SKC,0.00,VWS V14.01,2013-02-25 02:11:00,
2013-02-24 21:16:00,46.9,31.6,30.02,WSW,249,0.0,0.0,55,0.00,,SKC,0.00,VWS V14.01,2013-02-25 02:16:00,
2013-02-24 21:21:00,46.6,30.9,30.02,WSW,249,0.0,0.0,54,0.00,,SKC,0.00,VWS V14.01,2013-02-25 02:21:00,
2013-02-24 21:27:00,46.3,30.1,30.02,WSW,249,0.0,0.0,53,0.00,,SKC,0.00,VWS V14.01,2013-02-25 02:27:00,
2013-02-24 21:30:00,46.1,29.9,30.03,WSW,248,0.0,0.0,53,0.00,,SKC,0.00,VWS V14.01,2013-02-25 02:30:00,
2013-02-24 21:32:00,46.0,31.2,30.03,WSW,248,0.0,0.0,56,0.00,,SKC,0.00,VWS V14.01,2013-02-25 02:32:00,
2013-02-24 21:38:00,45.8,30.1,30.03,WSW,249,0.0,0.0,54,0.00,,SKC,0.00,VWS V14.01,2013-02-25 02:38:00,
2013-02-24 21:43:00,45.7,31.4,30.03,WSW,249,0.0,0.0,57,0.00,,SKC,0.00,VWS V14.01,2013-02-25 02:43:00,
2013-02-24 21:49:00,45.4,30.6,30.03,WSW,249,0.0,0.0,56,0.00,,SKC,0.00,VWS V14.01,2013-02-25 02:49:00,
2013-02-24 21:54:00,45.0,32.4,30.03,WSW,249,0.0,0.0,61,0.00,,SKC,0.00,VWS V14.01,2013-02-25 02:54:00,
2013-02-24 21:59:00,44.7,30.4,30.04,WSW,248,0.0,0.0,57,0.00,,SKC,0.00,VWS V14.01,2013-02-25 02:59:00,
2013-02-24 22:00:00,44.7,30.4,30.04,WSW,248,0.0,0.0,57,0.00,,SKC,0.00,VWS V14.01,2013-02-25 03:00:00,
2013-02-24 22:05:00,44.4,29.7,30.04,WSW,248,0.0,0.0,56,0.00,,SKC,0.00,VWS V14.01,2013-02-25 03:05:00,
2013-02-24 22:10:00,44.5,29.4,30.04,WSW,249,0.0,0.0,55,0.00,,SKC,0.00,VWS V14.01,2013-02-25 03:10:00,
2013-02-24 22:16:00,44.4,29.7,30.04,WSW,248,0.0,0.0,56,0.00,,SKC,0.00,VWS V14.01,2013-02-25 03:16:00,
2013-02-24 22:21:00,44.3,29.2,30.04,WSW,248,0.0,0.0,55,0.00,,SKC,0.00,VWS V14.01,2013-02-25 03:21:00,
2013-02-24 22:26:00,43.9,29.2,30.04,WSW,249,0.0,0.0,56,0.00,,SKC,0.00,VWS V14.01,2013-02-25 03:26:00,
2013-02-24 22:30:00,43.8,29.1,30.04,WSW,249,0.0,0.0,56,0.00,,SKC,0.00,VWS V14.01,2013-02-25 03:30:00,
2013-02-24 22:32:00,43.7,28.6,30.04,WSW,249,0.0,0.0,55,0.00,,SKC,0.00,VWS V14.01,2013-02-25 03:32:00,
2013-02-24 22:37:00,43.5,29.7,30.04,WSW,249,0.0,0.0,58,0.00,,SKC,0.00,VWS V14.01,2013-02-25 03:37:00,
2013-02-24 22:43:00,43.2,29.0,30.04,WSW,248,0.0,0.0,57,0.00,,SKC,0.00,VWS V14.01,2013-02-25 03:43:00,
2013-02-24 22:48:00,42.9,28.7,30.04,WSW,249,0.0,0.0,57,0.00,,SKC,0.00,VWS V14.01,2013-02-25 03:48:00,
2013-02-24 22:54:00,42.5,28.8,30.04,WSW,248,0.0,0.0,58,0.00,,SKC,0.00,VWS V14.01,2013-02-25 03:54:00,
2013-02-24 22:59:00,42.2,28.9,30.04,WSW,249,0.0,0.0,59,0.00,,SKC,0.00,VWS V14.01,2013-02-25 03:59:00,
2013-02-24 23:00:00,42.2,28.9,30.04,WSW,249,0.0,0.0,59,0.00,,SKC,0.00,VWS V14.01,2013-02-25 04:00:00,
2013-02-24 23:04:00,41.9,28.2,30.04,WSW,248,0.0,0.0,58,0.00,,SKC,0.00,VWS V14.01,2013-02-25 04:04:00,
2013-02-24 23:10:00,42.0,28.3,30.03,WSW,249,0.0,0.0,58,0.00,,SKC,0.00,VWS V14.01,2013-02-25 04:10:00,
2013-02-24 23:15:00,42.1,28.0,30.03,WSW,249,0.0,0.0,57,0.00,,SKC,0.00,VWS V14.01,2013-02-25 04:15:00,
2013-02-24 23:21:00,41.9,27.8,30.03,WSW,249,0.0,0.0,57,0.00,,SKC,0.00,VWS V14.01,2013-02-25 04:21:00,
2013-02-24 23:26:00,41.7,27.6,30.03,WSW,249,0.0,0.0,57,0.00,,SKC,0.00,VWS V14.01,2013-02-25 04:26:00,
2013-02-24 23:30:00,41.5,27.4,30.03,WSW,249,0.0,0.0,57,0.00,,SKC,0.00,VWS V14.01,2013-02-25 04:30:00,
2013-02-24 23:32:00,41.5,27.4,30.03,WSW,249,0.0,0.0,57,0.00,,SKC,0.00,VWS V14.01,2013-02-25 04:32:00,
2013-02-24 23:37:00,41.6,27.1,30.03,WSW,249,0.0,0.0,56,0.00,,SKC,0.00,VWS V14.01,2013-02-25 04:37:00,
2013-02-24 23:42:00,41.9,27.4,30.04,ESE,113,0.0,1.0,56,0.00,,SKC,0.00,VWS V14.01,2013-02-25 04:42:00,
2013-02-24 23:48:00,41.9,27.4,30.04,ESE,113,0.0,1.0,56,0.00,,SKC,0.00,VWS V14.01,2013-02-25 04:48:00,
2013-02-24 23:53:00,42.0,27.5,30.04,ESE,113,0.0,1.0,56,0.00,,SKC,0.00,VWS V14.01,2013-02-25 04:53:00,
2013-02-24 23:59:00,41.9,27.4,30.04,ESE,113,0.0,1.0,56,0.00,,SKC,0.00,VWS V14.01,2013-02-25 04:59:00,